This demonstration page uses our WeatherBlox Daily Observations layout. Learn more.

Hourly Observations for January 18, 2019

Temp ( °F °C ) Dew Point ( °F °C ) Humidity (%) Winds ( mph kmh ) Pressure ( in mb ) Visibility ( mi km ) Precip ( " mm )
12:15 am 00:15 Cloudy with Freezing Fog 28 -2 28 -2 100 100 SE 15 24 30.03 1017 0.5 0.80467 0 0
12:35 am 00:35 Cloudy with Freezing Fog 29 -1.8 29 -1.8 100 100 SE 14 22 30.03 1017 0.5 0.80467 0 0
12:55 am 00:55 Cloudy with Freezing Fog 29 -1.8 29 -1.8 100 100 SE 14 22 30.03 1017 0.5 0.80467 0 0
1:15 am 01:15 Cloudy with Freezing Fog 28 -2 28 -2 100 100 SE 15 24 30.03 1017 0.5 0.80467 0 0
1:35 am 01:35 Cloudy with Freezing Fog 29 -1.8 29 -1.8 100 100 ESE 16 26 30 1016 0.5 0.80467 0 0
1:55 am 01:55 Cloudy with Freezing Fog 29 -1.6 29 -1.6 100 100 ESE 16 26 29.94 1014 0.5 0.80467 0 0
2:15 am 02:15 Cloudy with Freezing Fog 29 -1.8 29 -1.8 100 100 ESE 17 28 29.94 1014 0.5 0.80467 0 0
2:35 am 02:35 Cloudy with Freezing Fog 29 -1.7 29 -1.7 100 100 ESE 15 24 29.91 1013 0.5 0.80467 0 0
2:55 am 02:55 Cloudy with Freezing Fog 29 -1.6 29 -1.6 100 100 ESE 16 26 29.94 1014 0.5 0.80467 0 0
3:15 am 03:15 Cloudy with Freezing Fog 29 -1.7 29 -1.7 100 100 ESE 15 24 29.91 1013 0.5 0.80467 0 0
3:35 am 03:35 Cloudy with Freezing Fog 29 -1.6 29 -1.6 100 100 ESE 14 22 29.91 1013 0.5 0.80467 0 0
3:55 am 03:55 Cloudy with Freezing Fog 29 -1.8 29 -1.8 100 100 ESE 15 24 29.91 1013 0.5 0.80467 0 0
4:15 am 04:15 Cloudy with Freezing Fog 29 -1.8 29 -1.8 100 100 SE 9 15 29.91 1013 0.5 0.80467 0 0
4:35 am 04:35 Cloudy with Freezing Fog 29 -1.7 29 -1.7 100 100 ESE 13 20 29.88 1012 0.5 0.80467 0 0
4:55 am 04:55 Cloudy with Freezing Fog 29 -1.7 29 -1.7 100 100 SE 8 13 29.91 1013 0.5 0.80467 0 0
5:15 am 05:15 Cloudy with Mist and Fog 29 -1.7 29 -1.7 100 100 ESE 10 17 29.91 1013 0.75 1.207005 0 0
5:35 am 05:35 Cloudy with Mist and Fog 29 -1.6 29 -1.6 100 100 ESE 9 15 29.88 1012 1 1.60934 0 0
5:55 am 05:55 Cloudy with Mist and Fog 29 -1.6 29 -1.6 100 100 ESE 10 17 29.88 1012 1.25 2.011675 0 0
6:15 am 06:15 Cloudy with Mist and Fog 29 -1.5 29 -1.5 100 100 ESE 9 15 29.88 1012 1.5 2.41401 0 0
6:35 am 06:35 Cloudy with Mist and Fog 29 -1.6 29 -1.6 100 100 E 10 17 29.88 1012 1.75 2.816345 0 0
6:55 am 06:55 Cloudy with Mist and Fog 29 -1.5 29 -1.5 100 100 ESE 9 15 29.88 1012 2 3.21868 0 0
7:15 am 07:15 Cloudy with Mist and Fog 29 -1.5 29 -1.5 100 100 ESE 8 13 29.88 1012 2 3.21868 0 0
7:35 am 07:35 Cloudy with Mist and Fog 29 -1.5 29 -1.5 100 100 E 8 13 29.88 1012 2.5 4.02335 0 0
7:55 am 07:55 Cloudy with Mist and Fog 29 -1.5 29 -1.5 100 100 E 9 15 29.88 1012 2.5 4.02335 0 0
8:15 am 08:15 Cloudy with Mist and Fog 29 -1.5 29 -1.5 100 100 E 7 11 29.88 1012 2.5 4.02335 0 0
8:35 am 08:35 Cloudy with Mist and Fog 29 -1.5 29 -1.5 100 100 E 6 9 29.88 1012 2.5 4.02335 0 0
8:55 am 08:55 Cloudy with Mist and Fog 29 -1.5 29 -1.5 100 100 E 7 11 29.88 1012 1.25 2.011675 0 0
9:15 am 09:15 Cloudy with Mist and Fog 30 -1.3 30 -1.3 100 100 E 7 11 29.88 1012 1.25 2.011675 0 0
9:30 am 09:30 Cloudy with Mist and Fog 30 -1.3 30 -1.3 100 100 E 6 9 29.88 1012 1.5 2.41401 0 0
9:55 am 09:55 Cloudy with Mist and Fog 30 -1.2 30 -1.2 100 100 ENE 6 9 29.88 1012 2 3.21868 0 0
10:15 am 10:15 Cloudy with Mist and Fog 30 -1.2 30 -1.2 100 100 ENE 8 13 29.88 1012 2 3.21868 0 0
10:35 am 10:35 Cloudy with Mist and Fog 30 -1.2 30 -1.2 100 100 ENE 8 13 29.91 1013 4 6.43736 0 0
10:55 am 10:55 Cloudy with Mist and Fog 30 -1.1 30 -1.1 100 100 ENE 8 13 29.91 1013 3 4.82802 0 0
11:15 am 11:15 Cloudy with Mist and Fog 30 -1.1 30 -1.1 100 100 NE 8 13 29.91 1013 4 6.43736 0 0
11:35 am 11:35 Cloudy 30 -1.1 30 -1.1 100 100 NE 9 15 29.91 1013 7 11.26538 0 0
11:55 am 11:55 Cloudy with Mist and Fog 30 -1.1 30 -1.1 100 100 NNE 8 13 29.91 1013 5 8.0467 0 0
12:15 pm 12:15 Cloudy with Mist and Fog 30 -1.2 30 -1.2 100 100 NE 10 17 29.91 1013 5 8.0467 0 0
12:35 pm 12:35 Cloudy with Mist and Fog 30 -1.2 30 -1.2 100 100 NNE 9 15 29.91 1013 3 4.82802 0 0
12:55 pm 12:55 Cloudy with Mist and Fog 29 -1.5 29 -1.5 100 100 NNE 10 17 29.91 1013 2.5 4.02335 0 0
1:15 pm 13:15 Cloudy with Mist and Fog 29 -1.5 29 -1.5 100 100 NNE 9 15 29.91 1013 4 6.43736 0 0
1:35 pm 13:35 Cloudy with Mist and Fog 30 -1.3 30 -1.3 100 100 NNE 9 15 29.91 1013 2.5 4.02335 0 0
1:55 pm 13:55 Cloudy with Mist and Fog 29 -1.5 29 -1.5 100 100 NNE 10 17 29.91 1013 2.5 4.02335 0 0
2:15 pm 14:15 Cloudy with Mist and Fog 29 -1.8 29 -1.8 100 100 NNE 12 19 29.91 1013 4 6.43736 0 0
2:35 pm 14:35 Cloudy 28 -2 28 -2 100 100 NNE 13 20 29.97 1015 7 11.26538 0 0
2:55 pm 14:55 Cloudy 28 -2.3 28 -2.3 100 100 NNE 14 22 29.97 1015 10 16.0934 0 0
3:15 pm 15:15 Cloudy 28 -2.3 28 -2.3 100 100 NNE 13 20 30 1016 10 16.0934 0 0
3:35 pm 15:35 Cloudy with Mist and Fog 27 -3 27 -3 100 100 NNE 14 22 30 1016 5 8.0467 0 0
3:55 pm 15:55 Cloudy with Mist and Fog 25 -4 25 -4 100 100 NNE 13 20 30.03 1017 4 6.43736 0 0
4:15 pm 16:15 Cloudy 24 -4.6 24 -4.6 100 100 NNE 13 20 30.09 1019 10 16.0934 0 0
4:35 pm 16:35 Cloudy 23 -5 23 -5 100 100 NNE 14 22 30.09 1019 10 16.0934 0 0
4:55 pm 16:55 Cloudy 23 -5.2 23 -5.2 100 100 NNE 12 19 30.09 1019 7 11.26538 0 0
5:15 pm 17:15 Cloudy 22 -5.5 22 -5.5 100 100 N 10 17 30.12 1020 10 16.0934 0 0
5:35 pm 17:35 Cloudy 22 -5.5 22 -5.5 100 100 N 13 20 30.12 1020 10 16.0934 0 0
5:55 pm 17:55 Cloudy 21 -5.9 21 -5.9 100 100 N 14 22 30.15 1021 10 16.0934 0 0
6:15 pm 18:15 Cloudy 21 -6.1 21 -6.1 100 100 N 13 20 30.15 1021 10 16.0934 0 0
6:35 pm 18:35 Cloudy 20 -6.4 20 -6.4 100 100 N 13 20 30.21 1023 10 16.0934 0 0
6:55 pm 18:55 Cloudy 20 -6.5 20 -6.5 100 100 N 12 19 30.21 1023 10 16.0934 0 0
7:15 pm 19:15 Cloudy 20 -6.7 20 -6.7 100 100 N 14 22 30.24 1024 10 16.0934 0 0
7:35 pm 19:35 Cloudy 19 -7 19 -7.1 99 99 N 15 24 30.24 1024 10 16.0934 0 0
7:55 pm 19:55 Cloudy 19 -7.3 19 -7.5 98 98 N 10 17 30.27 1025 7 11.26538 0 0
8:15 pm 20:15 Cloudy 19 -7.5 18 -7.7 98 98 N 13 20 30.27 1025 10 16.0934 0 0
8:35 pm 20:35 Cloudy 19 -7.5 18 -7.9 97 97 N 13 20 30.27 1025 10 16.0934 0 0
8:55 pm 20:55 Cloudy 18 -7.8 17 -8.2 97 97 N 10 17 30.3 1026 10 16.0934 0 0
9:15 pm 21:15 Cloudy 18 -7.9 17 -8.4 96 96 N 14 22 30.3 1026 10 16.0934 0 0
9:35 pm 21:35 Cloudy 17 -8.2 16 -9 94 94 N 9 15 30.3 1026 10 16.0934 0 0
9:55 pm 21:55 Cloudy 17 -8.5 16 -9.1 95 95 N 12 19 30.33 1027 10 16.0934 0 0
10:15 pm 22:15 Cloudy 16 -8.8 14 -9.8 93 93 N 13 20 30.33 1027 10 16.0934 0 0
10:35 pm 22:35 Cloudy 16 -9 14 -9.9 93 93 N 10 17 30.36 1028 10 16.0934 0 0
10:55 pm 22:55 Cloudy 16 -9 14 -10.2 91 91 N 9 15 30.36 1028 10 16.0934 0 0
11:15 pm 23:15 Cloudy 16 -9 14 -10.1 92 92 N 12 19 30.36 1028 10 16.0934 0 0
11:35 pm 23:35 Cloudy 16 -9 14 -10.1 92 92 N 13 20 30.36 1028 10 16.0934 0 0
11:55 pm 23:55 Cloudy 16 -9 14 -10.2 91 91 N 9 15 30.39 1029 10 16.0934 0 0

Powered by AerisWeather